Change the Weather History Date:

Monday, August 25, 2014

  Actual Average Record
Temperature  
Mean Temperature 68 °F 73 °F  
Max Temperature 79 °F 84 °F 98 °F (1998)
Min Temperature 56 °F 62 °F 51 °F (1942)
Degree Days  
Heating Degree Days 0 0  
Month to date heating degree days 0 0  
Since 1 June heating degree days 2 12  
Since 1 July heating degree days 0 1  
Cooling Degree Days 3 8  
Month to date cooling degree days 180 234  
Year to date cooling degree days 873 864  
Since 1 June cooling degree days 757 778  
Growing Degree Days 18 (Base 50)    
Moisture  
Dew Point 58 °F    
Average Humidity 74    
Maximum Humidity 100    
Minimum Humidity 48    
Precipitation  
Precipitation 0.00 in 0.11 in 1.37 in (2012)
Month to date precipitation 4.33 3.07  
Year to date precipitation 28.50 27.59  
Sea Level Pressure  
Sea Level Pressure 30.15 in    
Wind  
Wind Speed 4 mph (NE)    
Max Wind Speed 13 mph    
Max Gust Speed 18 mph    
Visibility 6 miles    
Events Fog    
T = Trace of Precipitation, MM = Missing Value Source: NWS Daily Summary

Daily Weather History Graph

Daily Weather History Graph

Search for Another Location

Airport or City:

Trip Planner

Search our weather history database for the weather conditions in past years. The results will help you decide how hot, cold, wet, or windy it might be!

Date:

Astronomy

Aug. 25, 2014 Rise Set
Actual Time 6:37 AM EDT 7:53 PM EDT
Civil Twilight 6:10 AM EDT 8:21 PM EDT
Nautical Twilight 5:37 AM EDT 8:53 PM EDT
Astronomical Twilight 5:02 AM EDT 9:27 PM EDT
Moon 6:40 AM EDT (8/25) 7:44 PM EDT (8/25)
Length of Visible Light 14h 10m
Length of Day
13h 16m
New Moon, 0% of the Moon is Illuminated
Aug 25
New Moon
Sep 2
First Quarter
Sep 8
Full
Sep 15
Last Quarter
Sep 24
New

Hourly Weather History & Observations

Time (EDT) Temp. Dew Point Humidity Pressure Visibility Wind Dir Wind Speed Gust Speed Precip Events Conditions
12:00 AM 63.0 °F 62.1 °F 97% 30.16 in 6.0 mi Calm Calm - N/A   Clear
1:13 AM 62.1 °F 61.0 °F 96% 30.17 in 1.8 mi Calm Calm - N/A   Clear
1:30 AM 62.1 °F 61.0 °F 96% 30.17 in 0.8 mi Calm Calm - N/A   Mist
1:39 AM 62.1 °F 61.0 °F 96% 30.17 in 1.0 mi Calm Calm - N/A   Clear
1:44 AM 62.1 °F 61.0 °F 96% 30.16 in 4.0 mi Calm Calm - N/A   Clear
1:53 AM 61.0 °F 60.1 °F 97% 30.15 in 1.8 mi Calm Calm - N/A   Clear
2:18 AM 62.1 °F 60.1 °F 93% 30.16 in 0.5 mi Calm Calm - N/A Fog Fog
2:53 AM 60.1 °F 59.0 °F 96% 30.14 in 0.5 mi Calm Calm - N/A Fog Fog
3:10 AM 59.0 °F 57.9 °F 96% 30.15 in 1.0 mi Calm Calm - N/A   Clear
3:18 AM 59.0 °F 57.9 °F 96% 30.15 in 3.0 mi North 3.5 mph - N/A   Clear
3:53 AM 60.1 °F 59.0 °F 96% 30.13 in 9.0 mi NW 3.5 mph - N/A   Clear
5:53 AM 57.0 °F 57.0 °F 100% 30.14 in 2.0 mi Calm Calm - N/A   Clear
6:21 AM 57.9 °F 57.0 °F 97% 30.16 in 6.0 mi Calm Calm - N/A   Clear
6:34 AM 57.0 °F 55.9 °F 96% 30.16 in 1.8 mi Calm Calm - N/A   Clear
6:41 AM 57.0 °F 55.9 °F 96% 30.17 in 3.0 mi Calm Calm - N/A   Clear
6:53 AM 57.9 °F 57.0 °F 97% 30.15 in 6.0 mi Calm Calm - N/A   Clear
8:53 AM 64.9 °F 60.1 °F 84% 30.17 in 10.0 mi Calm Calm - N/A   Scattered Clouds
10:53 AM 73.0 °F 59.0 °F 61% 30.18 in 10.0 mi East 8.1 mph - N/A   Clear
11:53 AM 75.0 °F 59.0 °F 57% 30.19 in 10.0 mi ENE 9.2 mph - N/A   Partly Cloudy
12:53 PM 75.9 °F 57.0 °F 52% 30.18 in 10.0 mi NE 8.1 mph - N/A   Clear
1:53 PM 78.1 °F 57.0 °F 48% 30.16 in 10.0 mi East 10.4 mph - N/A   Clear
2:53 PM 79.0 °F 57.0 °F 47% 30.15 in 10.0 mi ENE 11.5 mph - N/A   Partly Cloudy
3:53 PM 79.0 °F 57.0 °F 47% 30.13 in 10.0 mi North 8.1 mph - N/A   Clear
4:53 PM 78.1 °F 57.0 °F 48% 30.13 in 10.0 mi ENE 11.5 mph - N/A   Clear
5:53 PM 77.0 °F 57.0 °F 50% 30.13 in 10.0 mi ENE 9.2 mph - N/A   Clear
6:53 PM 75.9 °F 55.9 °F 50% 30.14 in 10.0 mi ENE 6.9 mph - N/A   Clear
7:53 PM 71.1 °F 57.9 °F 63% 30.13 in 10.0 mi NE 3.5 mph - N/A   Clear
8:53 PM 69.1 °F 59.0 °F 70% 30.14 in 10.0 mi Calm Calm - N/A   Clear
11:53 PM 62.1 °F 59.0 °F 90% 30.16 in 10.0 mi Calm Calm - N/A   Clear